Dewpoint
72 72 72 72 72 72 72 73 73 73 73 73 72 72 73 72 72 72 72 72 71 70 70 69 68 67 66 66 67 66 66 67 68 67 66 65 65 65 65 66 66 66 66 66 66 66 65 64 64 65 65 64 63 64 64 64 64 64 64 63 63 63 62 60 59 60 61 61 62 62 63 62 62 62 61 61 62 63 67 65 64 64 65 65 64
71 72 72 72 72 72 72 73 73 73 73 73 73 72 73 72 72 72 72 72 71 70 70 69 68 67 66 66 66 67 67 66 67 67 67 66 65 65 65 66 65 66 66 66 66 66 65 64 64 65 65 64 64 64 64 64 64 64 64 64 63 63 64 62 61 60 60 60 61 62 63 63 62 62 60 60 60 62 62 62 63 64 64 63 63
72 72 72 72 73 73 73 73 73 73 73 73 73 72 73 73 73 72 72 72 72 70 69 69 68 68 67 66 66 66 67 66 67 67 67 66 65 65 65 65 65 65 65 66 65 65 65 64 64 64 65 64 64 64 64 64 65 64 64 65 64 64 64 64 62 61 61 61 60 61 61 62 62 61 62 62 63 63 62 61 60 62 63 64 63
72 72 72 72 73 73 73 73 73 73 73 73 72 72 72 73 73 73 72 72 71 71 69 69 69 68 67 67 66 66 66 67 67 67 66 66 66 65 65 65 65 65 65 65 65 65 64 64 64 64 65 64 64 64 64 64 64 64 64 64 64 64 64 64 63 62 61 60 59 60 61 61 61 62 63 63 62 62 62 61 61 61 61 62 62
72 72 72 72 72 73 73 73 73 73 73 73 72 72 72 72 73 73 72 72 72 71 70 69 68 68 67 67 66 66 66 67 67 66 66 66 66 65 65 65 65 65 65 65 67 65 65 64 64 64 64 64 64 64 64 64 64 64 63 63 64 64 64 64 64 63 62 60 60 60 61 61 61 61 62 61 61 62 62 62 61 61 61 61 61
72 72 72 72 72 73 73 73 73 73 73 73 72 72 72 72 72 73 72 72 71 71 70 69 68 68 67 67 67 66 66 67 67 66 66 66 66 66 66 65 65 65 65 65 65 65 64 64 64 64 64 64 63 63 63 63 63 63 63 63 63 63 63 63 63 62 62 62 61 60 59 60 60 61 62 62 61 60 60 61 61 61 61 61 61
72 72 72 72 72 72 73 73 73 73 73 73 72 72 72 72 72 72 72 72 71 71 70 69 68 68 68 67 67 67 66 67 67 66 66 66 66 66 65 66 65 65 65 65 64 65 64 64 64 64 64 64 63 63 63 63 64 63 64 63 63 63 63 63 63 62 62 61 61 61 61 61 61 60 61 62 62 61 60 59 59 60 61 61 61
72 72 72 72 72 72 73 73 73 73 73 73 72 72 72 72 72 72 73 72 72 71 70 69 68 68 68 67 67 67 67 67 67 67 66 66 66 66 66 65 65 65 65 65 65 64 65 64 64 64 64 64 64 64 64 64 64 64 64 64 63 63 63 63 62 62 62 61 61 61 61 60 59 61 61 60 59 60 61 61 60 59 59 60 60
72 72 73 72 72 73 73 73 73 73 73 73 72 72 72 72 72 72 72 72 72 71 71 70 69 68 68 67 67 67 67 67 67 66 66 66 66 66 66 65 65 65 65 65 65 65 64 64 65 65 66 68 66 66 66 66 64 64 64 64 64 63 63 63 63 62 62 61 61 61 61 61 61 60 60 59 59 59 60 61 60 60 60 60 60
72 72 72 73 73 73 73 73 73 73 73 72 72 72 72 72 72 72 72 72 72 72 71 70 69 69 68 68 67 67 67 67 65 62 63 66 66 66 66 66 65 65 64 64 65 65 64 64 65 68 69 69 68 65 62 63 64 65 64 64 64 64 63 63 62 62 62 61 61 61 61 60 61 61 60 60 60 60 59 59 58 59 59 59 60
71 72 72 73 73 73 73 73 73 72 72 72 72 72 72 72 71 71 72 72 72 72 71 70 70 69 69 68 67 67 67 67 63 61 61 63 66 66 66 66 66 65 64 64 64 64 64 64 64 68 69 70 69 67 64 63 62 62 62 63 65 64 63 63 63 62 62 62 62 61 61 61 61 61 60 60 60 60 59 59 58 58 57 56 56
70 71 72 72 73 73 73 73 72 72 72 72 72 72 72 72 71 71 71 71 72 72 71 71 70 69 69 69 68 67 67 64 61 60 61 62 64 67 66 66 66 65 64 64 64 64 64 64 65 66 67 67 66 66 66 65 63 62 61 61 62 62 63 64 63 63 62 62 62 62 61 61 61 61 61 60 60 60 59 59 59 59 58 57 56
69 70 71 72 73 73 73 73 72 72 72 72 72 72 72 72 71 71 71 71 71 71 71 71 70 70 69 69 68 68 67 63 61 60 60 62 64 65 66 66 65 65 65 64 64 64 64 65 65 65 66 68 69 64 64 64 62 61 61 61 61 61 60 60 61 64 63 62 62 61 61 61 60 61 61 61 61 59 59 59 59 58 58 57 58
68 70 71 72 73 73 73 73 72 72 72 72 73 72 72 72 72 71 71 71 71 71 71 71 70 70 69 69 68 68 68 63 60 58 59 62 63 64 66 65 65 65 65 65 65 64 64 65 65 65 66 66 63 63 64 64 64 63 62 63 63 64 62 60 59 59 61 63 62 61 61 61 60 61 62 62 60 60 60 59 59 59 59 59 59
68 69 71 72 73 73 73 73 72 72 72 72 72 72 72 72 72 71 71 71 71 71 71 71 70 70 70 69 69 68 68 61 58 57 58 60 61 64 66 66 66 66 65 65 65 65 65 65 65 65 65 64 64 65 64 63 62 62 62 63 63 64 64 64 63 62 61 61 61 61 61 62 62 62 62 63 62 62 62 60 60 60 59 59 59
67 69 70 71 72 73 73 73 73 72 72 72 72 72 72 72 72 72 71 71 71 71 71 71 70 70 70 69 68 68 68 58 57 57 57 59 60 66 66 65 65 65 65 66 66 66 65 65 65 64 64 64 66 65 64 63 60 61 61 61 63 64 65 65 63 63 64 62 61 61 61 62 61 63 63 63 62 62 62 62 59 58 56 55 55
66 68 69 71 72 73 73 73 73 72 72 72 72 72 72 72 72 72 72 71 71 71 71 71 71 70 70 69 68 68 66 58 56 55 57 58 60 66 66 65 64 65 65 65 66 66 66 65 65 64 64 64 63 60 61 64 62 61 62 61 62 63 64 65 62 60 59 59 58 59 59 59 58 57 57 58 61 61 60 58 58 58 56 55 55
67 68 69 70 71 72 73 73 73 72 72 72 72 72 72 73 72 72 72 71 71 71 71 71 70 70 69 69 68 67 65 57 54 54 56 57 61 65 65 64 63 64 64 64 65 65 66 68 67 64 64 64 60 58 59 63 62 62 62 62 63 63 64 64 65 64 61 58 58 57 57 58 58 57 57 56 56 58 59 58 58 56 56 56 54
67 67 68 69 70 72 73 73 73 73 72 72 72 72 72 73 73 73 72 72 72 72 71 70 69 69 69 68 66 67 64 58 53 55 56 56 61 65 64 63 63 64 64 63 63 64 65 68 68 64 64 62 58 58 57 61 62 62 63 63 63 63 64 63 63 62 62 62 61 62 62 60 61 60 61 59 58 59 59 59 58 56 56 55 55
67 67 68 69 70 72 73 73 73 73 73 73 73 73 73 73 73 72 72 72 72 71 70 69 68 68 68 68 67 67 65 62 58 54 55 55 58 64 63 61 61 62 64 64 63 63 65 66 66 59 58 58 56 55 55 57 62 63 64 63 63 63 63 61 62 61 61 62 60 60 61 61 61 60 60 61 62 63 60 59 58 57 56 56 56
67 67 68 69 70 71 73 73 73 73 73 73 73 73 73 73 73 73 72 72 71 69 68 68 68 67 67 68 67 66 65 63 60 54 54 54 57 59 61 60 59 62 64 64 63 63 62 62 63 60 56 55 54 53 53 54 59 63 63 63 64 62 59 60 61 63 59 59 58 58 58 58 59 59 59 59 60 60 61 59 59 57 57 56 56
67 67 68 69 70 72 73 73 74 74 74 74 73 73 73 73 73 73 72 71 70 69 68 67 67 67 67 67 66 66 64 61 62 55 54 54 55 55 60 59 60 63 64 63 62 61 61 60 60 59 56 55 54 53 51 52 54 59 62 59 55 56 60 61 59 58 57 57 56 57 56 55 55 56 57 58 59 60 58 57 58 59 59 59 58
69 69 70 71 72 73 74 74 74 74 74 74 73 73 73 73 73 73 72 71 70 69 68 67 67 67 67 67 66 65 64 62 57 58 54 54 53 53 56 58 60 65 64 62 61 60 60 59 59 60 58 55 53 51 51 52 54 57 54 51 52 56 60 58 58 56 56 55 55 55 54 55 55 56 57 58 58 58 58 57 55 55 58 60 60
73 72 72 73 74 74 74 74 74 74 73 73 73 73 73 73 73 73 72 71 70 68 67 67 66 66 66 66 65 64 64 63 58 56 57 53 52 51 55 57 59 63 64 63 61 61 60 59 59 55 53 50 50 52 52 53 58 50 48 52 54 57 58 56 55 55 56 55 54 54 54 55 55 56 57 58 58 57 57 56 54 54 53 52 52
74 74 74 74 74 74 74 74 74 73 73 73 72 72 72 73 72 71 71 70 69 67 66 66 66 66 66 65 65 64 64 64 61 59 56 53 51 51 54 56 57 58 63 63 63 62 59 55 50 48 48 47 48 49 51 53 51 49 50 53 58 56 56 54 54 54 53 53 53 54 54 56 57 57 56 56 57 55 55 54 54 54 54 53 52
74 74 74 74 74 73 73 73 73 72 72 72 72 72 72 72 71 70 70 69 68 67 66 65 65 65 65 65 65 64 64 63 62 60 58 55 54 53 56 56 58 59 62 61 58 56 53 50 49 49 50 51 55 57 57 57 52 53 53 55 56 55 55 53 53 53 53 53 54 55 56 55 55 55 55 55 53 51 51 51 50 51 51 51 50
73 73 73 73 73 73 72 72 71 71 71 71 71 71 71 71 70 69 69 68 67 67 66 65 64 64 65 65 65 64 63 62 61 59 58 57 58 58 57 58 58 58 60 58 56 55 53 54 54 54 54 55 57 59 58 55 54 53 54 55 55 55 55 54 53 53 54 53 54 55 55 54 54 55 53 51 50 50 50 52 50 50 51 50 47
73 72 72 72 71 71 71 72 71 69 69 70 70 70 70 70 70 69 68 68 67 66 65 65 64 64 64 64 64 63 62 61 61 60 58 58 59 59 59 60 60 60 60 58 57 58 57 55 55 57 57 56 56 57 56 56 55 54 53 54 54 55 56 58 58 54 53 54 54 54 54 53 52 52 53 50 49 50 51 52 52 49 50 47 42
69 69 69 69 68 68 67 64 61 59 56 52 50 52 62 68 66 60 58 61 68 66 65 65 64 64 64 64 63 62 62 62 61 56 59 55 58 59 58 59 59 60 60 57 60 59 57 57 57 57 57 57 56 55 55 55 55 55 55 54 53 53 54 54 56 56 56 54 55 55 54 52 52 51 50 48 49 49 49 49 49 48 46 43 41
68 68 67 67 65 64 63 62 60 59 57 56 56 54 49 42 48 62 59 55 55 59 59 65 65 65 65 65 64 64 63 63 56 52 51 50 51 52 53 53 53 58 56 55 60 59 58 58 58 58 57 56 56 55 55 55 55 55 55 56 55 55 55 55 55 55 54 54 53 52 52 51 47 48 48 49 48 47 47 49 46 45 43 41 42
66 66 65 65 65 64 64 63 62 61 61 60 59 58 57 54 44 43 48 51 54 52 52 54 57 59 64 64 58 55 58 54 51 50 48 48 48 48 47 47 49 49 50 58 59 60 59 58 58 58 58 57 57 57 57 56 56 56 56 56 55 55 55 55 56 54 54 53 52 51 50 47 46 47 46 47 47 47 45 45 45 44 42 42 42
64 65 64 64 64 63 64 63 62 62 62 62 62 61 60 59 57 47 43 46 47 48 50 52 53 53 56 59 58 57 52 49 48 47 47 47 46 45 45 46 46 47 49 53 59 58 59 58 58 58 58 58 58 58 58 57 56 56 56 55 56 56 55 55 52 52 50 48 47 48 47 46 46 46 47 47 47 43 41 42 41 42 44 44 44
66 66 65 65 65 64 64 63 62 62 62 61 61 61 61 61 58 56 53 45 43 42 42 42 46 48 50 50 52 53 50 46 46 46 46 45 45 45 45 45 45 45 48 56 58 57 57 58 58 58 57 56 56 55 56 57 57 57 57 56 55 54 54 52 50 49 50 49 48 46 46 46 45 44 45 44 42 40 41 42 42 43 44 42 43
66 66 66 66 65 64 63 63 63 62 62 62 61 61 61 61 60 59 58 58 57 51 45 42 41 43 41 41 43 44 45 45 45 45 44 44 43 44 45 46 42 44 52 58 58 57 55 56 55 54 54 53 52 54 54 55 56 56 55 54 53 52 50 47 46 47 47 47 46 47 46 43 43 39 40 41 42 42 42 43 43 42 41 41 40
67 68 68 67 64 64 64 63 63 62 62 62 62 61 60 61 61 61 61 60 59 58 55 52 44 41 46 44 41 42 43 44 44 44 44 44 44 43 47 54 54 53 53 54 56 54 54 54 53 51 51 51 51 52 51 51 51 51 50 48 48 47 47 45 45 45 45 46 46 45 44 43 42 43 41 41 41 41 41 42 41 41 40 40 40
68 67 67 66 65 65 64 64 63 63 62 62 61 61 61 61 61 61 60 60 58 55 52 48 48 46 42 40 40 41 41 42 43 43 43 44 44 48 55 54 53 53 53 53 54 54 54 54 53 52 51 51 51 50 50 50 50 49 49 50 50 48 46 45 46 45 45 44 43 45 43 42 43 42 41 42 42 42 41 41 41 41 41 39 41
66 66 66 66 65 65 65 64 64 63 62 61 61 61 61 61 61 60 59 58 56 54 50 49 50 51 50 49 45 41 40 41 42 42 43 43 45 54 55 54 54 53 53 53 54 54 53 53 52 51 51 52 51 51 51 51 51 50 50 48 48 46 45 45 46 48 45 43 43 43 42 42 42 43 42 41 41 40 40 42 40 40 41 43 44
66 65 65 65 65 65 65 64 64 63 62 62 61 61 61 61 61 60 59 57 55 53 52 53 54 54 52 50 51 49 45 42 43 44 43 44 49 53 54 54 53 52 52 52 53 54 53 53 52 52 51 50 49 48 48 48 48 48 49 47 47 46 50 48 49 46 44 44 43 44 45 44 43 42 44 39 36 37 38 41 39 38 40 42 41
65 62 62 62 63 65 64 64 64 63 63 63 62 62 61 61 60 59 58 57 55 54 54 54 54 53 52 51 50 50 51 52 52 52 51 50 50 51 52 53 54 53 53 53 55 54 53 53 52 51 50 49 49 49 48 48 48 47 47 46 45 46 46 45 45 45 46 45 44 43 43 43 41 41 39 36 37 38 38 39 40 40 39 38 38
64 64 62 61 63 62 63 64 63 63 63 62 62 62 62 61 60 59 57 56 55 54 54 54 54 53 51 51 50 50 52 52 52 51 51 50 51 50 50 51 52 53 54 54 54 54 52 51 51 50 49 49 48 48 48 48 48 48 47 45 44 43 43 43 43 43 42 43 44 42 41 40 41 40 38 39 40 40 40 41 41 41 39 40 41
63 63 65 62 61 62 64 63 62 62 63 63 62 62 62 62 61 59 58 57 56 55 55 54 54 52 51 49 47 48 52 52 52 52 51 51 51 50 51 51 51 51 52 53 54 52 51 51 51 50 49 49 48 48 48 47 47 46 44 45 44 44 43 42 42 42 42 43 41 41 41 40 41 38 38 40 44 41 41 41 40 39 41 41 41
63 62 61 61 61 62 62 62 62 64 62 62 62 62 62 61 60 58 58 58 57 56 55 55 53 52 49 45 44 45 51 52 52 52 52 52 52 51 52 51 51 52 54 52 52 51 51 51 51 50 49 49 49 49 48 46 46 45 45 44 44 44 44 42 43 43 41 39 40 39 40 42 43 43 42 44 40 39 40 40 40 41 40 40 41
64 64 64 63 62 62 62 63 63 62 61 61 61 63 63 61 60 59 59 58 58 57 56 55 54 52 50 46 46 46 51 53 57 53 53 53 52 53 52 51 52 54 53 51 51 51 51 51 51 51 51 50 49 49 48 47 46 45 44 44 44 43 41 42 42 41 41 41 42 43 41 42 42 39 41 41 40 40 40 41 42 41 40 40 41
63 64 63 63 62 62 62 63 62 62 62 62 62 62 62 61 60 60 59 58 58 57 57 56 54 52 51 48 46 47 51 53 54 53 53 54 53 52 53 53 52 53 52 52 52 51 50 49 47 46 47 46 46 46 44 43 42 41 42 42 44 44 41 42 41 41 41 41 42 41 40 41 41 38 40 42 39 40 41 42 42 41 41 41 42
61 62 62 62 62 62 62 62 62 62 62 62 61 62 62 61 60 60 59 59 58 58 57 55 54 53 51 50 49 49 51 52 54 55 53 53 53 53 54 53 52 52 51 51 49 47 46 45 44 45 45 44 44 43 42 42 41 40 40 41 42 42 41 41 41 42 42 42 41 40 39 39 35 35 37 38 42 41 41 41 41 44 42 41 40
62 62 61 60 60 60 60 60 61 60 60 60 60 60 60 60 59 59 59 58 58 57 56 55 54 53 52 51 50 51 51 53 53 54 54 54 53 53 53 52 51 49 47 45 46 46 46 45 45 44 43 42 42 42 42 42 41 40 41 41 40 40 40 41 42 42 40 39 37 37 38 38 35 38 42 42 41 41 41 41 41 42 42 41 40
61 61 60 60 60 60 60 60 60 59 59 59 59 59 59 58 58 58 59 58 57 57 55 54 54 53 52 52 52 52 53 54 53 53 54 54 53 52 52 51 48 45 44 45 45 45 46 45 44 44 43 43 43 42 40 40 40 41 41 40 39 39 39 40 40 38 37 37 38 36 37 37 39 41 41 42 41 40 41 41 41 43 43 42 40
61 61 60 60 60 60 60 60 60 60 59 59 59 59 58 58 57 57 57 58 57 56 55 55 54 54 54 53 53 53 54 54 54 54 53 52 51 52 51 49 46 44 44 44 45 45 45 45 45 44 44 43 42 40 39 39 38 38 38 38 37 37 37 37 35 35 36 36 36 36 37 37 38 39 40 39 38 39 40 40 42 43 43 42 42
60 60 60 59 60 60 59 59 59 59 59 58 58 59 58 58 56 57 57 57 56 55 55 54 54 54 54 54 54 54 54 54 53 53 52 52 52 51 49 47 46 45 44 44 44 44 44 45 45 45 44 43 42 40 38 37 34 34 34 34 36 39 35 35 35 35 37 37 36 36 35 35 35 38 39 39 39 39 40 41 41 43 43 43 42
60 60 60 60 59 58 59 59 59 58 57 57 56 55 55 55 55 56 56 56 56 55 55 55 54 54 54 54 54 53 53 53 52 52 52 52 51 51 48 47 46 46 45 45 44 44 44 44 45 44 44 43 42 39 37 36 33 32 32 33 37 33 32 33 33 34 32 30 30 31 34 35 36 36 37 37 38 38 39 41 43 44 43 42 42
60 59 59 59 58 58 57 57 57 57 56 56 57 54 53 54 55 55 55 56 55 55 56 54 54 53 53 52 53 52 51 51 51 50 50 49 50 50 48 47 46 46 46 45 45 45 44 44 44 44 44 43 41 39 38 35 33 32 33 35 34 32 32 32 30 31 33 32 31 34 35 36 36 34 36 36 37 38 43 44 44 43 42 42 42